HZA2 HAAB-FZIC

Flight info

Callsign HZA2
Flight time N/A
Altitude 38000
Route ETGOM2A ETGOM UL432 LOV DCT PATAR UN553 NALOS UT136 BUN/N0407F240 H1 OSBID DCT LEVKO LEVKO2C
Aircraft A320/M-SDE3FGHIRWY/LB1

Departure

Time N/A
Airport Addis Ababa Bole International Airport (HAAB)

Arrival

Time 2026-04-27 22:48
Airport Bangoka International Airport (FZIC)
Time Latitude Longitude Altitude Speed Heading
2026-04-27 22:23 0.90715 27.19134 37965 ft 467 kts 257°
2026-04-27 22:23 0.90018 27.15967 37964 ft 467 kts 257°
2026-04-27 22:24 0.88623 27.09617 37958 ft 468 kts 257°
2026-04-27 22:24 0.87233 27.03261 37954 ft 469 kts 257°
2026-04-27 22:25 0.85837 26.96892 37959 ft 469 kts 257°
2026-04-27 22:25 0.84443 26.90525 37960 ft 469 kts 257°
2026-04-27 22:26 0.83054 26.84153 37953 ft 470 kts 257°
2026-04-27 22:26 0.81665 26.77770 37958 ft 470 kts 257°
2026-04-27 22:27 0.80259 26.71390 37955 ft 470 kts 257°
2026-04-27 22:27 0.78861 26.65010 37911 ft 470 kts 257°
2026-04-27 22:27 0.78166 26.61841 36948 ft 477 kts 257°
2026-04-27 22:28 0.77451 26.58577 35892 ft 484 kts 257°
2026-04-27 22:28 0.76721 26.55245 34673 ft 484 kts 257°
2026-04-27 22:28 0.76005 26.51994 33009 ft 488 kts 257°
2026-04-27 22:28 0.75261 26.48618 31253 ft 495 kts 257°
2026-04-27 22:29 0.74529 26.45291 30395 ft 495 kts 257°
2026-04-27 22:29 0.73800 26.41956 29647 ft 489 kts 257°
2026-04-27 22:29 0.73080 26.38660 28882 ft 483 kts 257°
2026-04-27 22:29 0.72365 26.35400 28148 ft 478 kts 257°
2026-04-27 22:30 0.71658 26.32166 27419 ft 474 kts 257°
2026-04-27 22:30 0.70959 26.28959 26708 ft 469 kts 257°
2026-04-27 22:30 0.70266 26.25791 26000 ft 465 kts 257°
2026-04-27 22:30 0.69577 26.22648 25305 ft 461 kts 257°
2026-04-27 22:31 0.68894 26.19536 24631 ft 457 kts 257°
2026-04-27 22:31 0.68259 26.16434 23979 ft 454 kts 261°
2026-04-27 22:31 0.68088 26.13394 23249 ft 451 kts 272°
2026-04-27 22:31 0.68415 26.10290 22641 ft 446 kts 277°
2026-04-27 22:32 0.68790 26.07241 22144 ft 438 kts 277°
2026-04-27 22:32 0.69140 26.04241 21583 ft 433 kts 276°
2026-04-27 22:32 0.69478 26.01269 21033 ft 428 kts 276°
2026-04-27 22:32 0.69813 25.98330 20544 ft 423 kts 276°
2026-04-27 22:33 0.70147 25.95453 20307 ft 412 kts 276°
2026-04-27 22:33 0.70476 25.92634 20075 ft 407 kts 276°
2026-04-27 22:33 0.70802 25.89845 19705 ft 402 kts 276°
2026-04-27 22:33 0.71124 25.87069 19122 ft 402 kts 276°
2026-04-27 22:34 0.71448 25.84299 18546 ft 402 kts 276°
2026-04-27 22:34 0.71773 25.81529 17920 ft 401 kts 276°
2026-04-27 22:34 0.72095 25.78766 17322 ft 400 kts 275°
2026-04-27 22:34 0.72117 25.76001 16753 ft 397 kts 265°
2026-04-27 22:35 0.71900 25.73260 16183 ft 394 kts 265°
2026-04-27 22:35 0.71686 25.70537 15623 ft 392 kts 265°
2026-04-27 22:35 0.71479 25.67849 15315 ft 383 kts 265°
2026-04-27 22:35 0.71280 25.65260 14957 ft 364 kts 265°
2026-04-27 22:36 0.71092 25.62807 14616 ft 345 kts 266°
2026-04-27 22:36 0.70910 25.60466 14240 ft 332 kts 266°
2026-04-27 22:36 0.70730 25.58182 13626 ft 327 kts 266°
2026-04-27 22:36 0.70552 25.55940 13196 ft 322 kts 266°
2026-04-27 22:37 0.70374 25.53722 12881 ft 319 kts 266°
2026-04-27 22:37 0.70198 25.51523 12523 ft 317 kts 266°
2026-04-27 22:37 0.70025 25.49333 12153 ft 315 kts 266°
2026-04-27 22:37 0.69856 25.47170 11586 ft 311 kts 266°
2026-04-27 22:38 0.69693 25.45080 11243 ft 297 kts 267°
2026-04-27 22:38 0.69534 25.43059 10819 ft 288 kts 267°
2026-04-27 22:38 0.69380 25.41077 10283 ft 284 kts 267°
2026-04-27 22:38 0.69228 25.39118 9745 ft 282 kts 268°
2026-04-27 22:39 0.69079 25.37189 9471 ft 273 kts 267°
2026-04-27 22:39 0.68933 25.35321 9252 ft 266 kts 267°
2026-04-27 22:39 0.68790 25.33492 9002 ft 261 kts 266°
2026-04-27 22:39 0.68650 25.31698 8707 ft 258 kts 266°
2026-04-27 22:40 0.68512 25.29910 8352 ft 258 kts 266°
2026-04-27 22:40 0.68373 25.28124 7988 ft 257 kts 266°
2026-04-27 22:40 0.68238 25.26386 7489 ft 251 kts 266°
2026-04-27 22:40 0.68100 25.24583 6540 ft 267 kts 266°
2026-04-27 22:41 0.67971 25.22692 5581 ft 278 kts 266°
2026-04-27 22:41 0.67838 25.20780 4997 ft 270 kts 262°
2026-04-27 22:41 0.67445 25.18985 4463 ft 260 kts 244°
2026-04-27 22:41 0.66368 25.17598 3937 ft 250 kts 218°
2026-04-27 22:42 0.64988 25.16579 3464 ft 242 kts 211°
2026-04-27 22:42 0.63515 25.15991 3338 ft 219 kts 188°
2026-04-27 22:42 0.62042 25.16036 3063 ft 207 kts 163°
2026-04-27 22:42 0.60756 25.16671 3010 ft 209 kts 140°
2026-04-27 22:43 0.59698 25.17680 3020 ft 211 kts 135°
2026-04-27 22:43 0.58688 25.18740 3025 ft 211 kts 127°
2026-04-27 22:43 0.57873 25.19907 3022 ft 198 kts 125°
2026-04-27 22:43 0.57110 25.21007 3015 ft 189 kts 125°
2026-04-27 22:44 0.56368 25.22072 3018 ft 183 kts 125°
2026-04-27 22:44 0.55694 25.23042 3032 ft 158 kts 125°
2026-04-27 22:44 0.55099 25.23896 3015 ft 144 kts 125°
2026-04-27 22:44 0.54545 25.24695 3028 ft 137 kts 125°
2026-04-27 22:45 0.54004 25.25475 2869 ft 135 kts 125°
2026-04-27 22:45 0.53469 25.26240 2726 ft 134 kts 126°
2026-04-27 22:45 0.52934 25.27003 2549 ft 134 kts 126°
2026-04-27 22:45 0.52402 25.27760 2407 ft 133 kts 126°
2026-04-27 22:46 0.51870 25.28516 2261 ft 133 kts 127°
2026-04-27 22:46 0.51334 25.29278 2104 ft 134 kts 127°
2026-04-27 22:46 0.50798 25.30042 1938 ft 135 kts 126°
2026-04-27 22:46 0.50261 25.30809 1814 ft 134 kts 127°
2026-04-27 22:47 0.49734 25.31577 1677 ft 134 kts 124°
2026-04-27 22:47 0.49196 25.32341 1499 ft 134 kts 126°
2026-04-27 22:47 0.48686 25.33069 1419 ft 112 kts 124°
2026-04-27 22:47 0.48297 25.33616 1417 ft 86 kts 124°
2026-04-27 22:48 0.48039 25.33987 1417 ft 51 kts 125°
2026-04-27 22:48 0.47930 25.34120 1421 ft 9 kts 89°
2026-04-27 22:48 0.47962 25.34107 1421 ft 14 kts 302°
2026-04-27 22:48 0.48089 25.33920 1419 ft 42 kts 305°
2026-04-27 22:49 0.48266 25.33669 1419 ft 47 kts 305°
2026-04-27 22:49 0.48459 25.33388 1417 ft 51 kts 305°
2026-04-27 22:49 0.48671 25.33089 1420 ft 55 kts 305°
2026-04-27 22:49 0.48896 25.32770 1415 ft 49 kts 305°
2026-04-27 22:50 0.49034 25.32575 1414 ft 15 kts 308°
2026-04-27 22:50 0.49166 25.32561 1417 ft 14 kts 25°
2026-04-27 22:50 0.49239 25.32665 1412 ft 25 kts 79°
2026-04-27 22:50 0.49166 25.32843 1415 ft 33 kts 126°
2026-04-27 22:51 0.49095 25.32961 1414 ft 16 kts 92°
2026-04-27 22:51 0.49135 25.33004 1413 ft 0 kts 33°